RH
95 97 99 99 97 94 93 90 82 81 91 100 101 97 97 97 97 99 97 96 99 100 99 100 97 91 83 76 72 66 62 59 58 59 57 52 50 49 51 55 60 69 80 90 96 99 100 100 100 100 100 100 100 99 97 94 94 96 97 99 100 99 100 99 100 99 79 54 46 45 44 45 47 55 63 64 69 76 80 83 83 85 87 86 86
92 91 94 97 99 99 100 98 91 84 84 93 101 100 97 95 95 99 98 98 100 100 99 100 101 99 94 87 79 70 64 61 58 56 56 55 54 52 50 49 47 47 51 57 66 74 81 88 96 100 101 101 100 100 99 97 96 95 94 97 98 98 100 98 100 101 81 56 48 47 47 47 48 58 70 71 72 77 80 82 83 84 88 88 85
95 91 88 89 91 94 96 100 101 93 83 84 94 99 98 94 96 99 99 99 98 98 100 100 99 100 99 97 91 81 71 65 61 57 54 53 53 53 52 50 47 44 42 41 42 46 50 55 66 77 87 96 100 101 101 99 97 94 91 91 92 92 91 89 93 93 76 58 54 52 51 50 48 60 78 82 78 77 77 79 82 83 84 85 83
92 89 86 84 81 79 80 89 100 99 90 84 89 97 101 98 98 100 100 100 100 99 100 100 100 99 98 99 98 93 84 72 65 61 56 53 51 50 50 48 46 44 42 40 38 37 37 37 39 45 53 65 79 91 99 102 100 95 91 90 89 88 83 81 87 90 76 64 61 58 58 58 55 63 82 90 84 79 78 80 82 82 81 82 82
86 83 82 80 78 75 73 80 94 101 97 92 91 98 103 101 99 101 100 99 98 98 100 100 102 101 98 98 99 99 94 83 72 66 60 56 52 48 45 43 42 40 37 35 33 31 30 29 29 31 33 37 46 60 75 88 98 100 97 94 90 88 83 79 87 96 87 72 69 70 69 66 63 65 78 91 90 84 82 83 84 84 84 84 83
82 80 82 81 78 78 75 77 90 100 101 97 95 98 102 101 99 101 101 94 88 92 101 101 101 101 99 98 98 100 100 92 80 70 64 59 54 50 46 41 38 36 33 31 29 27 26 24 23 24 25 26 29 35 44 57 73 89 98 101 97 93 90 84 87 98 98 85 80 81 77 71 68 68 77 93 98 92 88 85 84 86 88 87 84
76 77 82 84 80 79 79 80 89 100 101 98 96 96 97 97 96 96 95 89 81 87 98 100 98 99 98 96 96 98 100 96 85 74 67 62 57 52 46 40 37 33 31 29 26 25 24 23 22 21 20 21 22 24 30 37 46 60 77 93 101 101 98 93 91 96 101 97 89 85 81 75 74 75 82 95 100 96 90 85 85 88 88 86 83
75 78 80 82 84 84 84 85 90 97 101 100 99 96 92 90 90 90 89 86 82 86 92 95 94 92 91 92 94 97 100 97 88 78 70 65 61 55 45 38 34 31 28 27 25 24 23 22 21 21 20 20 20 22 26 31 36 42 52 68 88 100 101 98 98 98 100 100 95 89 85 79 76 77 81 90 96 95 92 91 90 90 88 86 86
78 84 82 80 85 91 92 90 89 92 97 100 100 99 95 91 88 87 87 87 87 88 88 89 87 86 89 93 95 99 101 98 94 87 77 71 67 58 46 40 37 35 35 36 35 35 34 32 29 26 25 24 23 25 27 30 33 36 40 48 68 92 101 99 100 100 99 101 99 94 87 79 75 74 74 83 95 98 98 97 93 90 89 89 88
80 87 87 83 89 98 99 96 92 89 90 94 96 95 95 93 89 87 85 84 85 84 84 85 87 91 95 97 98 100 100 99 100 96 86 79 74 62 49 43 43 46 51 52 52 50 49 49 46 42 38 33 30 29 30 33 34 33 36 40 55 84 101 99 99 101 100 100 100 96 89 79 74 71 73 86 98 101 100 97 92 91 90 88 86
83 91 93 91 96 102 102 101 97 90 86 89 90 89 91 92 93 92 90 89 90 90 91 93 93 94 96 98 99 100 101 101 100 95 87 81 77 65 49 44 47 53 58 57 54 53 54 57 58 58 55 47 41 38 38 41 39 34 34 36 47 75 98 101 99 100 100 100 101 99 94 86 81 77 80 93 102 100 100 96 91 90 89 87 88
85 95 98 97 101 103 101 103 101 93 88 87 86 87 90 92 93 94 94 94 96 97 99 100 96 93 96 100 100 99 101 102 98 91 82 75 73 64 50 48 54 57 58 56 52 51 53 57 61 64 64 61 56 50 46 48 48 41 35 32 41 70 96 101 99 99 100 100 100 101 98 94 90 84 85 96 102 100 99 94 90 91 93 93 94
85 95 99 99 102 103 102 103 99 91 89 90 90 91 93 93 94 96 95 95 95 96 99 101 99 98 98 100 101 99 101 101 95 87 78 70 68 64 58 63 69 63 54 50 48 48 53 59 63 64 66 70 71 66 56 51 51 47 40 32 41 72 97 101 99 100 100 100 101 100 99 99 97 91 90 98 102 100 98 94 92 97 100 98 97
84 93 97 98 101 103 102 100 95 92 93 94 96 96 95 95 97 98 97 97 98 98 99 101 102 101 101 101 102 100 99 96 88 79 70 62 60 62 64 69 68 57 47 44 43 44 48 55 62 66 69 74 80 82 75 63 57 57 51 38 45 77 100 100 99 100 99 100 101 99 99 100 99 98 98 101 102 100 98 96 98 101 101 98 96
84 90 93 96 100 102 102 100 99 99 98 96 96 97 98 100 102 101 99 100 101 100 101 103 101 99 99 98 95 89 84 80 74 66 59 54 58 66 72 71 61 49 44 43 41 41 46 52 58 65 72 79 85 90 89 82 75 75 69 51 51 80 101 100 99 100 99 100 101 99 100 100 99 100 101 101 101 100 99 99 100 101 101 98 95
86 88 91 94 100 101 101 101 103 102 100 99 99 99 101 103 103 99 99 100 100 99 98 96 93 91 91 90 83 74 68 67 63 57 52 52 56 62 65 61 52 45 42 43 46 54 65 71 70 69 75 84 90 91 91 90 89 89 86 73 69 87 101 100 100 100 100 102 101 100 100 100 99 101 100 100 101 100 99 100 100 101 101 97 90
90 89 91 96 101 101 100 101 103 102 102 102 102 102 102 102 99 95 94 95 96 96 94 90 87 84 81 78 73 67 65 67 65 57 52 51 53 53 50 47 45 43 42 44 50 62 75 80 79 78 83 90 95 95 93 94 95 95 91 83 82 93 101 100 100 100 100 102 102 100 100 100 100 100 100 101 101 100 100 100 100 101 98 90 83
97 94 96 100 101 100 100 102 102 103 103 101 101 101 100 99 98 96 94 93 93 94 90 85 82 78 73 71 69 65 61 62 62 57 54 56 61 62 59 54 49 44 44 47 53 61 68 73 78 84 89 95 99 100 99 98 97 97 91 82 84 96 101 99 99 100 100 101 101 100 100 100 100 100 100 101 100 100 100 99 100 99 93 86 83
103 101 100 101 100 99 101 103 102 101 99 95 96 100 101 100 99 96 93 89 85 83 80 75 71 68 66 66 65 60 56 60 68 73 74 77 84 88 86 81 73 64 61 63 64 63 65 74 85 92 95 100 102 101 101 99 98 98 94 88 91 99 101 99 99 100 100 100 100 100 99 99 100 100 100 100 100 100 100 99 100 98 91 87 88
103 102 101 100 100 100 101 102 102 101 96 93 96 100 98 94 91 89 88 81 73 68 67 62 56 54 58 63 66 70 76 80 84 88 91 94 98 100 100 98 94 90 89 86 77 71 74 86 96 99 99 102 102 100 100 100 99 100 98 95 97 101 100 99 99 100 100 101 101 100 100 100 100 100 100 100 100 100 100 100 99 94 90 90 92
101 100 100 100 100 100 101 101 102 99 95 96 99 98 93 90 87 83 79 72 65 63 63 59 55 58 69 80 86 92 96 95 90 90 95 99 100 100 100 101 99 97 97 94 87 85 90 97 100 100 100 101 100 99 100 100 99 101 100 99 100 101 100 100 100 100 100 100 100 100 100 100 100 100 100 100 100 100 100 99 95 92 92 93 93
100 100 100 100 100 100 100 101 101 99 97 98 99 97 95 93 85 73 64 60 61 65 69 72 75 81 88 95 98 100 99 97 97 97 99 100 99 99 101 102 100 96 92 92 92 94 98 100 100 100 100 99 99 99 100 100 100 100 100 100 101 101 100 100 100 100 100 100 100 100 100 100 100 100 100 100 100 100 100 98 95 95 95 94 94
100 100 100 100 100 100 100 100 101 99 97 96 98 98 94 86 77 70 66 67 71 76 82 89 93 94 94 96 99 99 97 97 99 100 100 99 99 99 99 99 97 94 94 96 98 99 100 100 100 100 99 99 100 100 99 100 100 100 100 100 100 101 100 99 99 99 99 100 100 100 100 100 100 100 100 100 100 100 100 100 98 97 97 95 90
100 100 100 100 100 100 100 100 99 99 98 98 99 99 95 90 90 92 90 87 87 90 93 96 97 96 95 96 97 98 98 99 100 100 100 100 99 98 98 98 97 97 99 100 100 99 100 100 100 100 100 100 100 100 100 100 100 100 100 100 100 100 100 99 100 100 100 100 100 100 100 100 100 100 100 100 100 100 100 100 100 98 95 87 75
100 100 100 100 100 100 100 100 99 99 100 99 99 100 99 97 98 99 97 95 96 97 98 99 99 99 98 98 98 99 100 100 100 100 100 100 100 100 100 100 100 100 100 100 100 100 101 100 99 100 100 100 100 100 100 99 100 101 100 99 99 99 100 100 100 100 100 100 100 100 100 100 100 100 100 100 100 100 101 101 98 91 80 69 56
100 100 100 100 100 100 100 99 99 100 99 98 100 101 97 93 92 96 98 99 100 101 101 100 100 100 99 100 100 100 101 100 100 100 100 100 100 101 101 100 100 100 100 100 99 99 99 99 100 100 100 100 100 100 98 98 100 100 99 99 100 100 100 100 100 100 100 99 100 100 100 100 100 100 100 100 100 101 100 94 84 72 59 48 39
100 100 100 100 101 100 99 99 100 101 99 99 101 99 93 91 95 99 100 100 99 100 101 101 100 100 100 100 100 100 101 101 100 100 100 100 100 101 101 101 100 100 100 100 98 98 99 99 100 100 100 100 100 99 100 100 99 96 96 100 101 100 100 100 100 100 100 100 100 100 100 100 100 100 100 101 100 97 90 77 62 50 40 33 27
100 100 100 100 100 99 99 100 100 100 100 101 101 97 94 97 101 100 100 100 100 100 100 100 100 100 100 101 100 100 100 101 100 100 100 100 101 101 100 100 100 100 100 100 99 99 100 100 100 100 100 101 100 100 101 100 97 95 97 101 101 99 100 100 99 100 100 100 100 100 100 100 100 100 101 99 92 82 69 54 41 33 29 26 24
100 100 99 99 98 98 100 101 100 100 100 101 100 96 93 96 100 99 99 100 100 100 100 100 100 100 100 100 100 100 101 101 100 100 100 100 100 100 100 100 100 100 100 100 100 100 100 100 100 100 100 100 100 101 101 100 99 99 101 101 100 100 100 100 99 100 100 100 101 101 100 100 101 100 97 87 73 58 45 35 30 27 26 24 22
100 100 99 99 100 100 100 100 99 99 99 99 99 97 95 96 97 98 100 101 100 100 101 100 100 100 100 100 100 101 102 101 100 100 101 100 99 99 100 101 100 100 100 100 100 100 100 100 100 100 100 100 100 100 100 100 100 100 100 100 100 100 100 99 100 100 100 100 102 101 101 101 99 91 77 60 46 38 32 29 28 27 25 23 22
100 100 100 101 102 100 100 100 100 100 100 98 96 97 100 101 99 99 100 100 100 100 101 100 100 100 100 100 100 101 101 100 100 100 100 100 100 100 100 100 100 100 100 100 100 100 100 100 100 100 100 100 100 100 100 100 100 100 100 101 100 100 100 100 100 100 100 100 102 101 98 92 81 66 51 39 34 32 30 29 28 26 23 23 22
101 100 100 101 101 99 100 101 99 97 100 100 96 95 98 99 99 101 100 99 100 100 100 101 100 99 100 100 99 100 101 100 100 100 100 100 100 100 100 100 100 100 100 100 100 100 100 100 100 100 100 100 100 100 100 100 100 100 100 100 100 100 100 100 100 100 100 100 99 94 82 68 54 43 38 34 33 32 30 28 26 24 23 22 22
99 100 99 101 101 99 101 102 97 92 96 99 98 97 95 92 94 99 100 100 101 99 98 100 101 99 100 101 100 100 101 100 100 100 100 100 101 99 99 100 100 100 100 100 100 100 100 100 100 100 101 100 100 100 100 100 100 101 100 100 100 100 100 100 100 100 99 94 85 72 57 46 40 37 36 35 33 31 28 26 25 23 22 23 23
97 99 100 101 100 99 101 102 97 93 94 97 98 99 99 95 96 98 96 96 98 96 94 98 101 100 100 100 100 100 100 100 100 100 100 102 102 99 99 100 100 100 100 100 100 100 99 99 99 99 100 100 100 100 100 100 100 100 100 100 100 99 100 101 100 96 88 76 64 52 44 41 40 38 36 34 32 29 26 24 24 23 23 23 23
95 97 99 96 95 97 99 100 98 97 99 100 99 100 101 99 99 99 96 95 97 96 94 96 97 99 101 100 99 100 100 99 100 100 100 102 101 100 100 101 100 100 100 100 100 100 99 99 99 100 100 100 100 100 100 100 100 100 100 100 100 100 101 99 92 82 70 59 51 47 45 44 42 39 36 32 29 27 25 24 24 24 23 23 22
93 94 96 94 95 99 99 97 96 98 99 100 100 101 101 100 100 101 101 99 99 99 99 97 95 97 101 101 99 100 100 99 100 100 100 101 100 99 98 98 98 100 101 100 101 101 100 100 100 100 100 100 100 100 100 100 100 100 100 100 101 100 97 90 79 70 62 55 51 50 48 45 41 37 33 30 27 26 26 25 25 24 23 22 22
93 90 90 91 94 96 94 93 96 96 96 97 100 102 101 100 101 102 101 99 98 99 100 100 97 98 100 101 100 100 99 99 100 100 100 100 99 96 94 95 98 100 101 101 102 102 101 100 100 100 101 100 100 100 100 100 100 100 100 100 100 97 92 84 75 68 60 55 53 50 46 41 37 33 30 29 27 26 26 24 23 23 22 22 23
97 94 91 91 93 93 91 93 97 98 97 97 100 101 100 100 101 101 99 98 98 98 98 98 99 99 100 100 101 101 100 99 100 100 100 99 98 96 97 99 101 101 101 101 102 101 101 101 100 100 100 100 100 100 100 100 100 101 101 101 100 96 89 80 71 64 58 53 50 46 41 37 34 31 29 28 26 24 23 22 22 23 23 24 25
101 100 99 98 98 97 96 98 100 100 100 100 101 102 100 98 99 100 100 100 100 98 96 96 97 99 99 100 101 101 101 100 100 99 100 100 99 100 101 101 100 99 99 101 101 99 98 100 101 100 100 100 100 100 100 100 102 103 103 101 97 90 81 71 63 58 54 50 46 42 38 34 31 28 26 25 23 22 23 23 24 26 27 28 28
100 100 101 102 102 101 101 101 100 99 100 101 101 99 97 97 99 99 98 98 97 95 94 96 96 97 98 100 101 100 100 101 100 99 99 101 101 102 102 100 97 96 98 101 101 98 95 97 101 102 100 100 100 101 101 101 102 103 101 97 90 81 71 63 57 54 51 47 43 38 34 30 27 25 24 23 23 24 25 27 29 30 31 30 29
100 100 100 100 101 101 100 100 100 99 99 100 99 97 97 99 99 96 94 95 96 96 96 95 92 92 94 98 101 101 100 100 100 100 99 99 100 101 101 99 97 98 100 101 100 98 95 97 100 102 101 100 101 101 101 101 102 102 99 92 82 72 63 58 56 53 49 44 39 34 30 27 26 25 24 24 26 28 30 32 34 33 32 32 33
100 100 100 100 100 101 100 100 100 100 100 100 99 98 99 100 96 94 95 98 100 101 100 95 91 90 92 97 100 101 100 100 100 101 100 99 99 99 100 99 99 100 101 100 99 100 99 98 98 99 99 100 101 101 101 102 103 100 92 82 72 64 60 58 56 52 47 41 35 31 30 28 26 26 26 27 30 34 35 36 36 34 33 36 38
99 100 101 100 100 100 100 101 101 100 100 101 101 101 103 100 94 94 99 101 100 100 100 98 95 95 96 99 100 101 100 100 100 100 100 100 100 100 101 100 100 100 100 99 99 100 99 97 96 96 96 98 101 100 100 101 100 92 82 73 66 63 61 59 55 50 44 39 36 33 32 30 28 29 31 34 37 39 39 37 36 36 37 40 38
100 100 100 99 100 100 100 100 100 99 99 101 100 98 96 92 90 94 100 101 100 100 100 100 100 100 100 100 100 100 100 100 100 100 100 100 101 100 100 100 100 100 100 99 98 99 100 99 97 97 97 98 100 100 99 99 95 87 77 69 65 64 61 57 53 49 45 42 40 37 35 34 34 35 38 40 41 41 39 37 38 40 40 38 31
100 100 100 100 100 100 99 99 100 100 100 100 99 95 91 89 91 97 100 100 100 101 100 100 100 100 100 100 100 100 100 100 100 100 99 99 100 99 99 100 101 100 100 99 98 100 101 100 99 99 100 99 100 100 99 96 89 80 73 67 63 61 60 57 54 52 49 47 45 43 41 40 41 42 44 44 43 41 39 39 41 41 37 30 24
100 101 101 100 100 100 99 98 99 100 100 100 98 96 95 96 99 100 100 100 100 100 100 100 101 100 100 100 100 100 100 100 100 99 99 99 101 101 100 101 101 99 99 99 100 101 100 100 100 100 100 100 101 101 97 88 79 71 67 63 61 61 61 60 59 57 55 53 50 48 46 46 47 47 46 44 41 40 41 41 40 35 29 24 25
101 101 101 100 100 100 98 95 96 99 100 97 93 93 96 100 102 101 100 100 100 100 100 101 100 99 100 100 100 100 100 101 101 100 100 100 101 102 101 102 101 100 99 99 100 100 100 100 100 100 101 102 102 97 88 78 71 67 64 63 63 65 66 65 63 61 59 56 53 51 51 50 49 47 44 42 41 42 42 38 33 28 25 28 34
100 101 100 100 100 100 98 97 98 100 101 98 95 96 100 102 101 101 101 101 100 100 101 101 100 100 100 100 100 100 100 100 101 102 102 101 101 101 101 101 100 100 100 101 100 100 100 100 100 100 101 100 97 89 81 74 70 68 67 67 68 69 69 68 65 62 60 57 56 55 53 51 47 44 43 43 43 40 35 30 27 28 33 40 46
100 100 100 100 100 100 100 100 99 99 100 98 96 97 100 101 100 100 100 100 101 101 101 100 100 100 100 100 100 101 100 100 101 101 100 100 100 101 102 102 102 101 101 100 100 100 100 100 101 100 99 95 89 84 79 76 74 73 73 73 73 72 70 67 65 63 61 59 57 53 50 47 45 45 45 41 36 31 28 28 32 39 46 51 53
100 100 100 100 100 100 100 99 98 97 97 99 98 98 100 101 100 99 99 100 101 101 101 100 100 101 101 101 101 101 101 100 100 100 101 101 101 100 100 101 102 101 100 100 101 101 101 101 99 96 93 90 87 85 84 83 81 80 78 76 74 71 68 66 64 61 58 54 51 48 47 46 45 42 36 31 28 29 33 39 45 51 54 56 58
100 100 101 101 101 101 101 99 97 97 99 100 100 101 100 99 98 98 99 100 100 100 100 100 101 101 101 102 102 102 102 102 101 101 102 102 101 101 101 102 102 102 101 100 101 100 99 98 97 94 92 91 90 88 87 85 81 77 73 70 68 65 63 60 57 54 51 49 48 47 43 39 34 29 28 30 35 41 47 51 55 57 59 60 61
Wind_Speed
35 34 34 36 37 37 37 38 38 35 30 30 32 32 31 31 31 29 30 30 29 28 28 27 26 25 25 24 23 24 25 27 29 30 31 32 32 33 33 35 37 39 41 43 44 44 45 45 46 46 47 49 50 52 54 56 58 59 59 58 57 56 55 55 56 56 55 52 51 50 48 46 45 43 42 42 43 44 45 45 46 47 47 46 45
45 41 37 36 38 39 40 41 41 38 33 31 32 33 31 30 29 28 30 31 28 26 27 26 25 25 25 24 23 23 24 26 27 29 30 31 32 33 33 34 35 36 38 39 41 42 44 44 45 45 46 47 48 50 52 54 56 58 59 59 58 57 55 55 56 57 56 54 52 51 49 47 45 43 42 41 42 43 45 46 47 47 47 46 45
50 47 43 39 36 36 38 40 39 36 35 33 31 31 30 29 28 28 30 32 30 29 29 27 25 24 25 26 25 23 24 25 26 27 28 30 31 31 32 33 34 35 36 37 38 39 41 42 44 44 45 46 47 48 49 51 53 56 57 58 58 56 54 53 55 57 56 54 53 51 50 48 46 44 41 40 42 43 44 45 46 46 46 45 45
51 48 45 42 39 37 36 36 37 33 32 34 32 31 31 29 28 29 32 34 33 33 32 29 26 25 25 26 26 25 25 24 25 25 26 28 29 30 30 31 32 33 34 35 35 37 38 40 41 42 43 45 46 47 48 50 51 53 55 57 57 56 54 53 53 54 55 55 54 52 50 48 47 45 42 41 42 43 44 44 44 44 43 42 43
51 48 46 43 41 40 38 35 35 32 29 34 34 32 31 31 31 33 37 40 39 37 34 31 28 27 26 26 27 28 27 26 24 24 25 26 27 28 29 30 31 32 33 34 35 36 37 39 40 41 43 44 46 47 49 50 51 52 54 55 56 55 54 52 51 52 53 54 54 51 49 48 48 47 45 43 42 43 43 43 42 41 40 40 41
51 50 48 46 43 40 38 36 34 30 28 32 35 35 34 35 35 37 41 43 42 38 35 33 31 30 28 26 27 28 29 28 27 25 25 25 26 27 28 29 30 32 33 35 36 37 38 39 40 42 44 45 46 46 48 49 51 52 53 54 55 55 54 52 50 50 51 52 52 51 50 49 48 48 46 44 42 41 41 41 41 39 39 39 41
50 49 49 48 45 40 37 35 31 28 27 29 33 37 39 40 40 41 43 44 41 39 37 35 33 32 31 29 28 28 29 30 29 27 26 26 26 27 28 29 30 32 33 34 36 37 39 40 42 43 44 46 46 46 47 48 49 52 53 53 52 53 54 54 51 49 50 51 51 52 51 50 49 48 46 44 43 42 42 42 40 38 37 39 40
51 49 48 47 44 40 35 32 29 26 25 26 29 34 38 41 42 43 44 44 41 39 39 39 37 35 33 32 29 28 29 31 30 29 27 26 26 27 28 29 30 31 32 33 34 36 37 39 40 42 44 45 46 46 46 47 48 50 51 52 52 50 51 54 54 51 50 50 51 52 51 50 49 48 46 46 45 44 43 40 38 37 38 39 40
53 47 47 45 42 38 32 29 27 26 25 25 26 29 34 38 40 42 43 43 42 41 42 42 41 38 35 32 29 28 29 31 31 30 29 28 28 28 28 29 30 30 31 31 32 33 34 35 36 39 41 43 45 46 46 46 47 49 50 51 52 50 48 50 53 53 51 50 51 52 52 51 50 48 47 46 45 43 40 38 38 38 39 39 39
51 45 45 44 39 34 30 27 26 24 24 25 26 28 30 33 36 37 39 40 41 42 43 43 41 37 33 31 29 28 29 30 31 31 30 29 30 30 29 29 29 29 29 30 31 31 31 32 33 36 38 40 42 44 45 45 46 48 49 50 52 51 48 47 50 53 53 52 50 51 52 51 50 48 46 45 44 42 40 39 38 39 39 39 38
47 42 41 39 34 31 28 26 25 24 24 25 27 29 30 31 33 34 35 36 37 38 39 38 35 31 29 29 29 27 28 30 31 31 30 29 29 30 29 28 28 29 29 30 30 30 30 31 32 34 37 39 41 43 44 45 45 47 49 49 50 51 49 46 47 50 52 52 50 50 51 50 48 47 45 45 44 41 39 37 38 39 40 38 36
41 37 36 34 30 28 26 25 24 23 24 26 27 28 29 30 30 30 30 30 29 29 28 27 25 23 24 26 26 25 26 29 29 28 28 28 28 29 29 28 28 29 29 30 30 31 31 32 32 34 35 37 40 42 44 44 44 45 48 49 49 50 49 46 46 48 49 50 49 49 49 49 47 46 46 46 43 40 38 38 39 39 38 36 36
37 32 32 30 27 25 23 23 23 22 23 25 26 27 28 27 26 24 24 22 21 20 19 17 16 18 20 23 24 23 24 26 25 25 26 27 27 28 28 28 29 29 28 29 30 31 32 32 33 34 35 36 38 41 43 44 44 44 46 48 48 49 48 46 45 46 47 47 48 48 48 47 46 47 47 45 41 38 38 39 39 37 36 35 36
36 31 30 28 25 23 21 21 21 21 22 23 24 25 25 22 18 17 16 16 15 13 12 13 16 18 19 20 21 21 21 22 23 24 26 26 26 27 28 29 30 29 29 30 31 32 32 32 33 34 35 36 38 39 41 42 43 43 44 46 47 47 46 45 44 44 45 46 47 47 47 47 46 46 46 44 40 38 39 38 37 35 35 35 35
35 31 29 26 23 20 19 18 18 18 19 20 22 21 17 11 8 8 8 9 9 9 11 14 17 17 17 18 19 19 20 21 24 25 25 26 26 27 29 30 31 30 30 31 33 34 34 34 34 33 34 35 37 38 40 41 42 43 42 43 44 45 45 44 42 42 44 45 45 45 45 46 47 47 47 45 41 39 38 37 35 34 34 35 35
32 29 26 22 19 16 16 16 16 15 15 17 17 12 6 2 2 4 4 5 7 9 11 12 13 13 15 17 19 19 19 21 23 23 24 25 27 28 30 31 32 32 32 33 35 35 36 36 35 33 33 34 35 37 40 41 42 42 41 41 42 44 44 43 41 41 42 42 42 41 42 44 46 46 44 41 38 36 36 34 33 33 34 36 36
25 23 20 16 13 12 13 13 11 11 12 11 6 1 2 2 0 2 3 4 6 9 11 12 13 14 16 17 18 18 18 19 21 22 24 26 27 29 31 32 33 34 35 36 37 38 38 39 37 34 34 34 34 36 39 42 43 42 40 40 41 43 43 41 40 40 40 40 39 39 40 42 42 40 38 36 35 33 32 31 31 33 35 36 35
18 15 11 8 8 10 10 9 7 6 4 0 5 6 3 1 2 4 5 6 8 10 12 13 14 14 14 15 16 17 18 19 20 23 25 27 28 30 31 34 35 37 38 39 40 42 42 40 38 36 34 33 33 35 38 40 41 40 39 39 41 43 42 39 39 39 39 40 40 39 40 39 37 36 35 34 33 30 30 31 32 33 35 34 34
11 7 4 6 7 7 6 4 3 0 4 7 8 4 0 2 4 6 8 7 7 8 10 11 12 12 13 14 16 18 19 20 21 23 26 28 29 30 32 35 37 39 40 40 41 43 41 38 35 33 32 31 31 34 37 38 39 38 38 39 41 41 39 37 37 38 39 41 40 39 37 35 34 33 32 31 29 29 29 30 31 32 33 33 34
5 2 5 6 6 5 3 1 2 4 7 8 5 1 3 4 5 5 5 5 6 6 8 10 11 12 13 15 16 17 19 20 21 24 27 29 30 30 33 36 38 38 37 39 40 39 36 32 30 29 28 28 31 34 36 36 36 36 37 38 38 37 36 35 35 37 37 36 34 33 31 30 30 30 29 28 28 28 28 28 29 31 32 33 34
2 4 6 7 6 4 4 5 5 5 7 5 3 3 4 4 2 2 4 5 6 7 9 11 12 13 14 15 16 17 19 22 24 28 31 32 32 33 33 36 37 36 35 36 36 33 29 27 27 27 27 29 31 33 34 35 34 34 36 36 34 34 33 32 33 34 33 30 28 27 27 28 29 30 29 27 26 26 27 28 30 31 32 33 33
4 7 8 7 6 5 6 7 6 5 5 4 4 3 4 4 3 4 5 6 7 9 11 12 14 15 15 15 17 19 22 26 29 32 33 34 34 33 32 32 33 32 31 30 27 25 24 23 24 26 26 28 29 30 31 33 33 33 33 33 31 31 30 31 32 31 29 26 26 27 28 29 30 29 27 25 25 26 28 29 30 31 31 31 30
7 8 8 7 7 7 7 7 7 5 3 1 1 3 5 5 6 7 8 9 11 12 14 15 17 17 17 17 19 22 26 28 30 31 29 28 27 25 25 26 26 25 24 22 21 21 21 20 20 21 21 22 24 25 26 29 30 29 29 30 29 30 30 31 31 29 26 26 27 28 29 29 28 26 24 25 26 28 28 29 29 29 29 28 28
8 8 8 8 8 8 8 7 6 4 1 0 2 6 7 6 7 9 11 12 14 15 16 17 17 18 19 19 21 23 26 28 29 26 22 21 20 20 21 22 22 20 19 19 19 19 17 16 17 18 18 20 20 20 23 26 25 25 28 29 29 29 30 29 28 27 27 28 29 29 28 26 24 24 25 26 28 28 27 27 27 27 26 26 26
8 7 7 8 8 8 8 8 6 3 2 4 5 6 6 5 6 8 11 13 15 16 16 16 16 17 19 20 22 23 25 27 27 22 17 15 15 17 19 20 19 18 17 17 17 15 14 14 15 16 17 18 18 19 22 23 22 24 28 28 26 27 28 28 28 28 29 29 28 26 24 23 23 25 26 27 27 26 25 25 24 24 24 25 25
8 7 7 8 8 8 8 8 5 4 4 4 4 4 5 6 6 9 13 15 16 18 17 17 17 19 21 23 24 25 26 26 24 18 13 11 11 11 13 14 15 15 16 16 15 14 14 14 15 16 17 18 18 21 22 21 22 26 28 26 24 25 27 28 28 28 28 26 23 21 21 22 24 25 26 25 24 23 22 22 22 22 22 23 23
7 7 7 7 7 7 7 6 5 3 3 3 4 6 6 6 9 11 14 16 16 17 18 20 22 24 25 26 26 25 24 22 19 14 10 7 6 7 9 11 12 13 14 15 15 14 14 16 17 18 18 18 19 21 22 23 25 26 24 23 24 26 28 28 27 26 24 21 19 20 21 23 24 24 23 22 21 20 20 20 20 20 21 21 22
7 6 6 7 7 7 5 4 2 2 3 3 3 4 4 6 9 12 16 17 18 21 24 25 26 26 25 24 23 21 18 15 13 10 6 3 0 3 6 7 8 9 10 10 11 12 14 16 18 18 19 20 21 23 24 25 25 22 20 22 25 27 27 26 24 22 20 19 19 20 21 21 21 20 20 19 19 18 18 19 19 19 19 20 21
6 5 5 4 4 3 2 3 2 1 2 2 3 3 4 6 8 11 15 18 21 25 28 29 28 25 22 19 18 14 10 8 8 7 4 3 4 5 5 5 5 5 6 7 8 11 13 15 16 17 17 19 21 23 24 24 23 21 21 24 25 25 24 23 21 20 20 20 20 20 19 19 18 18 17 17 17 17 17 17 18 18 18 19 20
5 4 3 2 1 4 5 3 2 3 2 2 1 2 5 8 11 13 15 18 22 26 29 28 26 23 18 14 12 7 4 3 3 4 4 6 6 5 4 3 2 1 2 3 4 7 9 11 13 14 15 16 18 19 20 21 20 20 21 22 22 22 22 21 21 20 20 19 19 18 18 18 17 16 16 16 16 16 16 16 16 17 18 19 20
4 2 1 1 3 6 5 2 4 6 7 4 1 2 1 6 11 15 17 19 22 26 29 27 23 20 16 11 8 3 1 1 2 3 5 7 6 5 6 5 4 4 4 2 1 3 4 5 6 9 11 12 13 14 16 17 17 18 19 20 21 22 21 21 20 19 19 18 18 18 17 16 15 14 14 15 14 14 14 15 16 17 18 19 20
4 2 2 3 4 5 3 3 4 5 6 6 4 3 1 1 4 9 15 19 21 26 28 26 21 19 17 13 7 4 4 3 3 4 4 5 5 5 7 7 7 7 7 6 6 8 8 8 6 6 8 10 12 15 17 17 17 17 18 19 21 21 21 20 19 18 18 18 17 16 15 14 13 13 13 12 12 13 14 15 16 17 18 18 19
4 3 3 3 4 3 2 2 3 4 5 6 6 5 5 3 2 4 9 15 19 23 26 25 21 18 16 14 9 6 4 4 4 4 2 4 6 6 6 7 7 7 7 8 9 11 12 12 12 12 13 15 17 19 19 17 17 18 19 19 20 19 19 19 19 18 17 16 15 13 12 11 11 11 11 11 12 13 14 15 16 16 17 18 19
4 2 3 4 4 3 3 2 3 5 7 7 7 9 9 8 7 7 9 13 17 20 23 25 22 16 13 12 10 8 6 5 5 5 3 4 7 7 6 5 5 5 6 7 8 10 12 14 14 14 16 18 20 20 19 18 19 19 19 19 19 18 18 18 17 16 14 13 12 11 10 10 9 9 10 11 12 13 14 14 15 15 16 18 19
3 3 4 4 4 4 4 5 5 7 9 9 9 9 9 8 9 11 13 16 18 19 21 24 22 18 14 10 8 8 7 6 6 4 3 6 8 8 7 5 5 5 7 7 7 8 10 12 13 14 15 17 18 18 17 17 18 17 17 17 16 16 16 15 14 13 12 11 10 9 8 8 8 9 11 12 13 13 13 13 14 15 17 19 20
2 2 3 3 3 4 5 6 7 9 10 10 9 9 8 8 10 12 15 17 18 19 21 22 22 21 17 12 8 6 6 7 6 5 6 9 9 7 6 6 5 6 7 7 7 7 8 9 12 14 15 16 17 18 17 17 16 16 16 16 15 14 14 13 13 11 10 9 8 7 7 8 9 11 12 12 11 12 12 13 14 16 18 20 21
2 1 1 1 2 4 5 6 7 9 10 10 9 8 7 8 11 12 14 15 16 18 19 21 21 20 18 15 12 8 7 7 7 6 8 9 8 5 4 3 4 5 6 6 7 7 7 7 10 12 14 16 17 18 18 17 17 17 16 15 15 14 13 12 11 9 8 7 7 7 8 9 10 11 10 10 10 11 13 14 15 17 19 21 23
3 1 1 1 3 4 5 6 7 8 9 9 9 8 7 8 11 12 14 15 15 16 17 18 19 19 18 16 13 9 8 8 7 7 7 7 7 5 2 0 2 3 4 4 5 5 5 6 8 10 12 14 16 17 17 17 16 15 14 14 13 12 11 10 9 8 7 7 8 8 9 10 9 9 8 9 11 12 13 15 17 19 20 22 24
6 4 2 3 3 4 5 7 7 7 8 8 8 7 7 8 10 12 13 14 15 15 16 17 18 18 18 17 13 8 6 6 6 8 8 8 7 5 2 1 3 3 3 3 3 4 5 5 6 8 10 12 15 16 15 15 14 13 12 12 11 10 10 9 8 7 8 8 8 9 9 8 7 8 9 10 12 13 15 16 18 20 22 24 25
10 7 4 3 3 3 5 6 7 8 9 8 7 6 7 8 10 11 12 13 15 16 16 17 17 17 17 16 14 9 4 2 4 7 9 9 7 5 3 5 5 3 2 2 3 3 5 5 5 7 8 10 13 14 13 13 12 12 12 12 11 10 9 8 8 8 8 8 8 8 7 7 7 8 10 11 13 15 16 18 21 22 24 25 26
11 10 7 4 3 3 4 5 7 9 9 7 5 6 8 10 10 11 12 14 16 17 16 17 18 17 15 15 14 11 5 1 4 7 9 10 9 7 6 7 6 3 1 2 2 3 6 7 8 9 9 10 11 12 12 12 12 12 12 12 11 10 9 8 8 8 8 7 7 7 7 7 8 10 12 13 15 17 19 21 23 24 25 27 27
12 11 9 6 5 5 4 4 6 8 7 6 6 8 10 11 12 13 14 15 16 18 19 19 18 16 14 13 14 12 7 2 4 8 10 9 8 6 5 5 3 1 2 3 2 3 6 9 11 12 12 12 13 12 12 13 12 12 12 11 10 10 9 9 8 8 7 7 7 7 7 9 10 12 13 15 17 19 21 23 24 25 27 27 28
12 11 10 8 8 7 6 5 6 7 6 5 5 6 8 10 13 15 16 16 17 19 20 20 17 14 12 12 13 11 8 4 2 7 9 7 5 4 3 3 2 1 2 4 4 5 7 10 13 14 14 15 14 14 13 13 13 13 12 11 10 9 9 8 8 7 7 7 7 8 9 10 12 14 16 18 20 21 23 24 25 26 27 28 28
11 12 11 10 9 8 7 7 7 7 5 5 5 6 8 11 13 15 17 18 19 19 19 17 14 12 12 13 12 9 6 3 1 5 7 6 6 6 6 6 5 4 5 6 7 8 9 11 13 14 14 14 14 13 13 13 13 12 11 10 9 8 8 8 7 7 7 7 8 10 11 13 15 16 18 20 22 23 24 25 26 27 28 28 28
10 11 11 11 10 8 7 6 6 7 7 7 6 7 9 12 15 17 19 19 19 18 16 15 14 14 14 13 11 7 3 1 4 8 8 8 9 10 10 10 9 9 9 9 9 10 11 12 13 13 12 12 11 11 11 11 10 9 8 7 7 7 7 7 7 7 8 9 10 12 13 15 17 19 21 22 23 24 25 26 26 27 28 27 27
8 8 9 10 9 8 7 7 7 8 9 8 7 8 11 13 16 19 20 18 16 15 15 16 17 17 15 12 8 5 3 4 8 9 9 8 10 11 12 13 13 12 12 11 11 12 13 13 13 12 11 10 10 10 9 9 8 7 7 6 6 6 6 6 7 8 9 11 12 14 16 18 19 21 22 23 24 24 25 26 27 27 27 27 27
7 6 6 7 8 8 8 8 9 10 10 8 7 9 12 15 17 19 20 18 15 14 16 19 19 17 14 10 8 5 6 8 9 9 8 9 11 12 14 15 15 14 14 13 13 13 13 12 11 10 9 8 8 9 9 8 7 7 6 5 5 5 6 7 9 10 12 14 15 17 18 20 21 22 23 23 24 25 26 26 26 26 27 27 29
6 6 6 6 7 7 7 7 7 8 7 7 8 11 14 16 18 20 20 18 15 16 18 19 19 16 13 10 8 7 8 9 9 10 11 12 14 15 16 17 16 15 15 14 14 13 12 10 9 8 7 7 6 7 7 6 6 5 4 4 6 7 8 10 11 13 14 16 17 19 20 21 21 22 23 24 24 25 25 26 26 27 28 29 30
6 6 6 5 5 5 5 6 6 6 6 8 10 12 14 16 18 19 19 18 16 16 18 19 17 14 12 10 9 8 9 10 11 12 14 15 16 17 16 16 16 15 14 14 12 11 10 9 8 7 6 6 5 4 4 3 3 4 5 6 8 9 11 12 13 15 16 17 19 19 20 21 22 22 23 24 24 25 25 26 27 28 30 31 32
7 6 6 5 6 5 4 5 6 6 6 8 10 10 13 15 17 18 18 16 14 16 18 17 14 12 11 10 10 10 11 11 13 14 15 15 16 16 15 15 15 14 13 12 11 9 8 7 6 5 5 4 3 2 1 2 4 5 7 9 10 11 13 14 15 17 17 18 19 20 20 21 22 23 23 23 24 25 26 27 29 30 31 31 32
8 7 5 5 7 7 6 6 7 7 8 8 9 10 12 15 15 15 16 15 14 15 17 14 12 12 11 11 11 11 12 13 14 14 14 15 15 15 14 13 13 11 10 9 8 7 6 5 4 3 2 1 1 1 3 4 6 7 9 10 12 13 14 15 16 17 18 18 19 20 20 21 21 22 22 23 24 26 27 29 30 31 31 31 32
Wind_Direction
307 301 295 294 294 292 290 288 286 287 277 259 252 252 253 256 257 261 266 266 267 270 271 272 274 274 272 269 264 258 253 249 245 244 243 243 242 241 241 242 243 243 243 244 244 245 245 247 248 248 248 247 247 247 247 248 249 249 249 249 248 249 250 251 252 252 251 250 251 253 254 256 258 260 260 260 259 257 254 253 251 251 251 251 252
310 308 302 298 297 293 291 292 288 283 276 263 254 252 254 257 257 258 260 261 263 266 267 267 270 274 274 271 267 262 257 254 250 247 245 244 244 244 244 243 243 243 244 245 246 247 247 247 246 246 246 246 246 246 247 248 248 249 250 250 250 249 247 247 248 249 249 249 249 251 253 254 257 258 257 257 257 256 254 253 252 252 253 253 253
308 309 308 305 301 293 290 295 294 283 270 262 256 250 251 254 256 258 259 259 260 260 260 261 264 268 271 272 270 266 261 258 254 251 248 246 245 245 246 247 246 245 245 246 248 249 251 251 250 249 248 246 245 244 244 246 248 249 250 251 251 250 247 244 245 246 247 248 248 249 251 253 255 257 255 253 253 254 253 252 252 253 253 254 254
307 308 308 306 303 299 297 300 302 290 268 260 257 250 248 250 254 256 256 255 255 253 254 257 262 265 267 268 269 268 265 261 257 254 252 250 248 247 246 248 249 249 249 249 249 251 252 253 254 253 252 251 249 246 243 243 245 247 249 250 250 250 248 245 243 244 245 247 248 248 250 252 254 256 254 249 250 252 253 253 253 253 254 253 253
308 308 309 307 303 301 302 304 306 297 269 255 255 250 246 247 250 252 252 251 248 248 252 255 258 263 267 267 266 266 266 264 259 256 254 253 252 251 250 250 250 252 252 253 253 253 254 254 255 255 254 253 252 250 248 246 244 244 246 247 248 249 248 246 244 243 243 245 247 248 248 250 252 254 253 249 247 249 251 252 252 252 252 252 252
308 309 309 307 303 301 301 302 307 302 277 256 251 247 243 242 243 245 248 250 249 249 254 256 256 260 266 268 265 262 262 262 261 258 256 256 255 255 255 254 253 252 252 252 253 253 254 255 255 255 255 254 252 251 251 250 248 247 246 246 247 248 248 248 246 244 243 244 245 246 247 249 251 253 253 250 247 247 248 249 249 249 250 251 252
307 308 308 306 303 302 300 298 302 302 290 270 255 248 244 243 243 244 247 252 254 253 255 256 257 260 265 267 264 259 257 259 260 260 258 257 258 258 258 256 256 254 253 253 253 253 253 254 255 255 256 256 254 252 251 250 249 249 248 248 248 248 248 248 247 244 241 242 243 245 246 247 249 252 252 249 245 243 243 243 245 248 250 252 253
307 307 307 304 303 303 299 294 294 296 295 284 267 258 253 251 252 252 255 259 261 260 258 259 260 262 265 265 259 255 255 256 259 259 259 260 261 262 261 260 258 257 256 255 255 255 255 255 255 256 256 256 256 254 252 250 249 249 248 248 248 249 249 248 246 243 240 239 241 243 245 246 248 250 250 247 243 241 241 242 245 248 249 251 252
308 308 304 302 304 303 297 290 288 288 290 288 279 270 263 260 258 258 259 261 262 262 261 261 263 266 267 260 250 248 252 255 257 258 259 262 264 263 262 260 258 257 256 256 256 257 258 258 258 257 257 257 256 256 254 251 248 248 247 247 246 247 249 249 246 242 239 237 238 241 243 245 246 248 249 246 241 240 242 243 244 246 247 249 250
308 308 302 301 303 301 295 289 283 284 287 286 284 279 272 268 265 262 261 260 260 261 263 265 268 267 260 248 239 240 245 250 254 255 258 263 264 263 261 259 258 257 257 258 259 260 261 260 259 258 257 257 256 256 255 252 249 247 246 246 245 243 246 249 248 244 239 237 237 239 242 244 245 246 247 243 239 239 240 240 242 244 246 247 247
307 305 300 299 301 298 293 288 282 284 287 285 283 282 277 274 270 267 266 264 263 266 267 269 268 260 247 237 234 237 243 248 251 254 259 263 263 263 262 261 261 261 263 265 266 267 266 264 261 258 257 256 255 255 255 254 250 247 245 244 243 242 243 247 248 246 241 237 236 237 240 242 244 243 242 238 235 237 238 237 238 241 243 244 245
305 302 298 297 298 295 292 287 283 285 286 285 285 284 281 278 275 272 271 268 266 266 265 266 263 249 235 230 231 236 245 251 254 257 261 261 261 262 263 263 262 262 266 269 271 272 270 267 264 260 257 256 255 254 254 254 252 248 245 243 242 241 242 245 245 244 242 237 235 235 237 239 240 239 237 234 234 235 235 233 233 236 240 243 244
304 302 300 298 297 296 290 284 282 285 287 289 290 288 286 285 283 278 272 266 260 256 254 255 249 233 225 230 235 240 248 255 259 261 262 260 259 261 262 262 261 262 265 268 268 269 269 267 265 261 259 257 256 254 253 253 252 249 245 243 242 240 241 243 242 241 240 236 233 233 234 236 237 236 235 234 234 233 231 230 232 236 240 242 243
302 301 300 299 298 294 287 282 283 287 291 292 292 292 292 291 285 275 267 260 253 247 243 236 227 221 226 239 248 253 257 262 263 262 261 261 260 259 259 259 260 263 266 267 268 268 268 266 264 262 260 258 257 255 253 251 251 250 247 243 240 240 241 240 238 237 237 235 233 232 231 232 233 234 234 234 233 230 228 228 232 236 240 242 243
299 298 297 298 297 292 285 283 284 286 289 292 295 297 296 290 278 268 263 255 242 234 232 230 228 229 238 249 257 261 262 263 263 263 263 261 259 258 258 258 260 262 265 267 270 271 271 269 265 263 262 260 258 255 251 249 248 248 247 243 239 239 241 239 234 235 236 236 235 233 231 231 231 232 232 232 231 227 225 227 231 236 239 242 244
295 293 293 295 296 291 282 278 280 286 292 296 298 296 285 250 229 239 246 246 238 236 240 244 249 251 254 257 261 263 263 263 264 264 262 259 257 255 255 256 259 261 264 267 269 270 269 267 267 267 266 264 261 256 249 246 245 245 244 241 236 237 240 237 231 230 233 235 236 236 234 233 233 233 233 233 230 226 226 228 233 237 239 243 246
292 288 289 292 287 277 272 273 281 291 297 300 299 199 136 109 280 269 270 269 264 262 261 263 264 262 258 259 262 264 266 265 265 263 260 258 257 257 256 257 258 260 263 264 265 265 264 265 268 270 269 266 261 255 249 245 242 242 242 238 233 235 237 234 228 227 229 232 234 235 235 235 235 234 232 230 228 228 229 232 235 238 242 246 249
291 286 286 279 261 256 261 272 286 298 304 300 131 131 116 50 338 303 294 282 272 266 264 263 263 263 265 266 268 270 269 267 265 264 262 261 261 261 261 260 260 260 262 263 264 264 265 267 270 271 268 264 258 254 250 245 240 239 239 235 231 233 233 229 226 225 226 228 231 233 234 234 233 231 228 227 228 229 231 234 237 241 246 249 251
295 281 252 230 231 236 245 263 291 41 136 139 138 138 170 293 286 286 286 284 276 267 267 269 268 269 272 274 274 274 272 271 271 271 270 269 267 266 264 263 263 263 263 263 262 263 266 270 271 268 262 258 254 251 249 244 237 235 235 233 231 231 229 225 224 224 225 227 230 233 234 232 230 228 227 227 229 230 232 236 240 244 248 251 254
311 220 189 196 201 207 210 176 115 136 151 152 144 174 274 276 276 276 279 284 282 277 278 278 276 276 277 278 278 278 279 281 282 282 281 277 272 266 262 260 261 262 262 263 264 268 271 270 266 261 255 252 251 250 247 242 236 232 233 232 230 228 225 223 223 225 226 228 231 234 234 231 228 228 227 227 229 231 234 238 241 245 249 253 255
20 140 159 165 168 170 151 131 128 142 152 159 188 254 283 295 292 275 271 274 282 290 292 290 288 289 290 289 288 289 290 289 287 286 285 281 274 266 259 256 257 259 261 265 268 271 269 264 259 256 251 247 247 246 243 239 234 229 228 229 227 223 221 220 222 224 225 225 227 228 227 225 225 225 225 227 229 232 235 238 242 246 250 252 254
83 127 140 146 146 140 132 132 140 151 163 195 229 266 314 327 313 293 288 291 300 304 302 300 299 299 298 296 293 291 290 288 288 289 286 280 272 266 260 257 257 260 263 265 266 265 262 258 255 251 246 243 243 241 237 233 227 222 221 222 220 218 216 216 218 220 220 219 218 218 219 220 222 224 226 228 230 232 236 239 243 246 249 251 253
103 121 128 132 132 131 129 131 141 155 179 216 255 311 325 330 325 317 312 310 308 305 303 300 297 294 292 288 286 287 287 289 293 294 288 278 268 261 257 255 255 258 260 260 258 257 256 253 245 238 234 233 232 229 226 225 222 218 216 217 215 213 211 210 212 213 213 213 214 215 217 220 222 224 225 228 230 232 236 240 243 246 248 250 252
106 114 123 130 131 130 130 131 135 133 114 182 264 294 316 339 336 321 318 319 318 315 311 303 294 290 288 286 288 290 292 296 301 301 292 279 265 252 246 247 249 250 251 253 252 249 244 236 226 220 217 217 218 218 221 225 222 215 213 214 212 210 208 207 206 206 207 210 213 214 217 219 221 223 224 226 229 233 236 239 242 244 247 249 252
107 110 119 130 134 134 134 139 143 146 201 235 262 292 310 321 322 326 334 337 333 327 322 313 304 299 297 297 298 298 298 302 307 308 298 281 263 249 242 243 245 246 247 247 243 235 228 222 216 212 212 212 211 213 219 223 219 213 212 211 207 205 205 204 202 202 206 209 212 214 216 217 218 220 222 225 229 232 235 238 240 243 247 250 254
111 110 120 136 147 148 149 161 176 199 234 264 303 307 294 304 337 354 352 343 334 327 323 319 314 309 306 304 303 302 303 306 312 315 305 285 265 248 239 238 238 238 236 232 224 218 220 220 216 213 213 212 211 213 215 214 211 211 210 204 199 201 202 202 201 203 206 209 210 211 212 214 217 219 221 225 228 230 233 237 240 245 249 253 258
118 116 130 146 161 171 183 200 217 248 286 311 314 298 306 351 13 4 349 339 333 329 326 322 316 311 307 305 302 302 305 308 315 321 316 298 270 236 225 226 227 225 224 221 218 219 222 221 217 213 211 210 212 213 210 205 206 207 202 195 194 198 200 200 202 203 205 205 205 206 209 212 215 218 220 223 226 230 234 238 242 247 252 256 260
132 134 146 156 175 194 207 210 210 301 318 331 324 310 341 23 15 355 346 340 334 333 331 326 321 317 312 306 303 303 303 304 314 326 330 330 173 178 193 202 208 215 223 228 231 233 230 226 222 215 210 210 211 209 204 202 203 201 192 190 195 198 198 199 199 198 198 197 199 203 208 210 213 215 219 223 228 232 237 241 245 249 253 257 261
145 156 165 180 200 184 125 96 91 335 317 31 30 355 3 25 16 358 347 338 335 336 336 334 331 329 324 314 307 304 296 295 313 335 7 80 118 135 152 173 199 227 244 253 255 249 241 237 233 227 220 216 213 207 201 199 197 193 189 191 196 197 196 195 193 190 190 192 196 202 206 208 211 215 219 225 230 235 241 245 249 253 257 261 265
152 166 178 210 148 97 88 77 51 37 35 65 70 354 352 359 356 347 341 337 339 344 346 344 342 340 333 323 318 313 285 278 327 10 71 110 129 139 141 149 183 252 280 286 274 256 244 236 233 231 225 218 213 207 201 198 194 191 190 192 193 192 191 188 185 184 185 188 195 201 205 208 211 216 221 228 234 240 245 250 255 260 264 267 270
149 153 147 126 104 99 93 61 41 38 22 10 57 135 47 347 342 340 339 339 345 354 357 356 355 356 354 348 349 11 126 142 44 67 101 120 132 133 122 113 100 84 76 76 177 202 200 200 211 219 214 208 202 193 188 187 187 187 189 189 186 184 182 178 178 180 183 188 195 200 204 207 211 217 225 233 239 246 253 258 263 266 268 270 273
139 106 88 99 98 97 89 50 39 27 7 13 50 101 161 274 333 344 343 343 351 359 3 4 10 16 15 13 25 73 105 99 78 88 115 133 134 121 109 100 93 87 87 99 126 138 136 135 143 165 176 175 169 166 170 176 179 179 181 180 177 174 173 172 176 180 184 189 194 198 202 207 214 223 232 240 247 255 260 263 266 268 270 274 277
130 100 87 83 77 87 88 40 12 3 6 25 45 32 7 354 348 353 354 358 1 3 5 11 19 25 24 25 40 70 91 97 88 73 95 158 149 130 115 109 102 97 97 107 119 128 131 133 137 146 152 154 156 161 167 171 170 168 169 169 169 170 171 174 178 181 184 188 192 196 203 211 220 231 240 248 255 259 262 264 267 270 274 278 281
122 87 82 81 74 79 73 34 12 12 16 25 30 20 13 10 8 11 14 14 12 10 12 17 22 29 32 34 42 52 65 102 105 69 56 151 148 127 113 118 117 104 97 102 113 125 133 138 141 145 149 153 157 161 164 163 161 162 164 165 167 169 171 174 177 179 182 187 191 198 208 218 228 240 249 254 258 260 262 266 270 275 279 283 285
106 84 84 80 71 61 44 30 23 17 15 18 23 22 19 17 16 21 25 21 17 18 19 19 22 29 36 40 47 53 61 88 106 89 91 134 132 112 101 114 122 107 93 90 100 121 134 139 143 148 151 154 157 158 159 158 157 159 162 165 168 170 171 173 175 178 182 188 195 205 218 229 241 249 252 254 257 260 265 271 276 281 284 286 288
88 91 83 68 52 34 22 18 18 17 14 15 19 21 24 23 20 27 33 29 23 22 23 20 20 25 30 34 43 60 77 86 91 106 130 136 133 127 124 125 122 113 100 89 92 111 128 139 148 153 157 158 159 159 158 158 160 163 166 167 168 170 171 173 176 181 187 194 204 218 230 238 244 247 248 253 258 265 272 278 282 286 288 289 291
79 81 55 36 13 7 10 10 13 15 16 15 12 13 22 26 23 26 33 32 27 26 26 23 22 23 26 31 39 57 87 97 96 117 142 149 157 170 173 151 125 119 113 100 94 103 116 133 146 155 159 160 160 159 159 160 164 166 166 166 166 168 172 177 181 187 194 205 216 225 230 235 239 242 249 259 267 273 279 283 286 290 292 294 296
53 46 27 2 344 349 359 1 5 11 11 8 9 14 26 30 26 25 30 30 26 25 25 23 22 24 25 28 36 55 85 108 128 153 173 186 199 205 203 146 64 83 89 81 82 94 110 124 140 152 158 158 158 158 159 161 163 162 162 165 168 172 176 180 185 192 201 210 218 223 227 232 238 247 259 269 275 280 285 289 293 296 298 299 300
24 22 20 4 349 349 350 352 358 5 6 10 21 26 24 22 20 21 24 25 22 20 18 17 17 20 23 25 29 42 74 113 152 184 205 217 219 215 219 313 341 360 14 23 48 92 117 124 134 149 155 155 156 158 161 161 160 159 162 167 171 174 177 181 188 197 204 211 217 223 229 237 246 259 270 275 281 287 292 296 299 301 302 302 303
11 11 11 3 356 352 352 354 358 3 10 24 41 34 18 15 15 16 18 17 11 8 8 9 10 12 15 18 20 23 42 132 185 207 219 224 223 222 250 283 293 301 338 14 42 107 133 136 141 153 158 158 159 162 164 163 162 164 169 172 174 177 180 186 194 200 206 215 221 227 238 249 260 270 277 282 289 294 299 302 303 303 304 304 304
4 7 10 18 36 33 17 14 12 13 21 35 46 35 30 26 20 17 16 11 2 359 359 0 0 1 5 8 11 13 13 241 216 221 228 232 233 236 255 274 275 254 137 80 73 135 152 156 158 163 166 166 167 168 168 168 169 172 174 176 178 180 183 190 198 204 211 220 228 238 252 263 271 279 284 290 296 300 303 304 304 304 304 303 302
7 9 13 34 63 70 61 41 25 24 34 44 43 42 41 32 19 13 12 5 356 352 352 352 352 355 359 2 2 2 359 333 222 220 226 229 228 232 250 267 267 206 113 101 117 161 166 163 163 165 166 168 171 172 172 173 176 177 177 179 180 183 190 197 204 211 220 229 240 255 266 272 281 288 292 298 302 304 305 305 305 304 303 302 302
18 20 27 45 61 71 79 66 41 35 40 41 40 39 27 9 0 360 1 359 352 347 348 350 354 358 359 356 353 352 351 345 223 212 216 216 206 206 216 221 223 208 139 136 148 164 166 161 160 161 164 167 171 174 175 177 179 179 179 183 185 189 197 205 211 220 232 242 255 267 275 282 289 294 298 302 304 305 305 305 304 303 303 303 304
30 33 39 47 54 65 73 64 45 35 32 27 27 20 2 351 350 352 353 350 346 346 350 356 359 0 356 349 346 345 340 338 171 173 181 181 176 178 182 181 180 177 166 158 156 158 160 157 155 158 162 166 170 173 174 176 179 179 180 184 190 197 207 215 222 233 248 259 271 280 286 291 296 298 301 303 304 304 304 304 303 303 304 304 304
42 44 48 50 51 52 48 39 33 31 29 28 27 14 356 348 349 351 348 344 345 352 359 360 355 354 352 346 344 346 349 47 135 140 143 147 153 160 162 160 156 154 154 152 150 150 152 152 151 154 158 161 164 167 171 173 175 176 177 183 196 208 218 230 242 258 270 278 285 290 293 296 298 300 302 303 304 303 303 303 303 303 304 304 305
44 42 41 42 40 32 23 24 34 40 40 40 33 12 356 351 350 351 352 353 357 3 3 357 352 354 356 354 356 15 69 124 135 137 136 138 145 151 151 145 141 140 139 137 139 143 146 148 148 149 153 155 157 161 163 163 165 170 180 194 210 224 241 258 270 279 285 289 292 294 296 298 300 302 302 303 303 303 303 303 303 304 305 305 306
32 24 18 20 21 19 21 31 38 40 42 43 26 4 357 355 356 357 359 4 6 4 359 356 357 1 9 17 30 62 105 126 130 128 126 127 132 136 134 130 128 128 127 128 132 137 140 142 142 143 147 152 155 156 158 161 170 185 200 217 238 258 273 280 284 288 291 293 295 297 299 300 301 302 302 302 302 303 303 304 305 306 307 307 307
20 19 17 15 12 12 18 26 29 31 33 25 8 358 355 355 357 359 1 1 2 0 358 358 2 12 26 40 54 81 108 117 116 113 114 118 123 126 126 124 124 125 125 126 129 132 134 135 136 136 139 143 147 153 163 173 188 209 233 256 271 279 284 287 290 292 294 296 298 300 301 301 302 302 302 303 303 304 305 306 307 308 308 308 308
5 9 15 20 15 12 15 15 11 11 8 356 348 348 349 352 357 0 360 359 1 1 359 0 8 22 38 52 67 89 105 109 109 112 115 119 121 122 122 121 122 123 123 124 126 127 129 130 130 130 131 131 137 150 171 196 224 252 268 275 279 284 288 290 293 296 298 299 301 301 301 302 302 303 304 305 306 307 308 308 308 309 309 308 309
344 348 359 10 9 6 4 354 345 344 346 345 344 348 350 352 356 0 1 2 5 4 1 5 18 33 45 58 76 92 103 108 111 115 117 118 118 117 116 116 116 116 116 117 118 119 121 121 121 121 122 124 134 160 215 257 268 275 279 282 286 291 294 296 299 300 301 301 302 303 303 304 305 306 307 308 309 309 309 309 309 309 309 309 309
338 338 339 343 344 342 337 328 320 319 327 338 347 354 353 351 354 360 3 7 10 6 4 14 32 43 51 67 83 93 100 107 111 113 114 114 112 110 108 106 104 103 103 104 104 104 105 103 99 98 93 73 11 303 293 290 288 289 291 294 296 299 300 301 302 302 302 303 304 305 306 307 308 308 310 310 310 310 310 309 309 309 309 309 309